Location: Flotzheim
(48.8375°N, 10.8136°E)
Time: 04:52:39
(UTC+00:00)

ATLAS 2AS CENTAUR R/B - Pass Details

Date: 23 January 2021
Orbit: 947 x 1265 km, 63.7° (Epoch: 13 February)

Event Time Altitude Azimuth Distance (km) Brightness Sun altitude
Rises 19:41:16 0° 302° (WNW) 4,205 6.7 -36.0°
Reaches altitude 10° 19:44:41 10° 314° (NW) 3,210 5.8 -36.5°
Enters shadow 19:50:17 27° 360° (N) 2,135 4.3 -37.4°
